EW8081 Weather Reports


Display with metric or nautical units.
time (UTC)temp
F
wind
direction
speed
MPH
gust
MPH
rain 1hr
in
rain 24hr
in
rain mn
in
humidity
%
barometer
mb
20260902204505 66 56 1.0 4.0 0.00 0.00 0.00 67 1008.0
20260902203004 66 33 0.0 11.0 0.00 0.00 0.00 61 1008.3
20260902201502 66 58 2.0 8.0 0.00 0.00 0.00 63 1008.4
20260902194559 67 38 3.0 8.0 0.00 0.00 0.00 56 1008.6
20260902193058 66 348 2.0 6.0 0.00 0.00 0.00 58 1008.7
20260902191557 67 349 2.0 5.0 0.00 0.00 0.00 59 1009.4
20260902190059 67 314 3.0 9.0 0.00 0.00 0.00 59 1009.7
20260902184555 67 329 4.0 9.0 0.00 0.00 0.00 59 1009.7
20260902183108 68 287 4.0 11.0 0.00 0.00 0.00 55 1010.1
20260902181602 68 340 1.0 5.0 0.00 0.00 0.00 52 1008.8
20260902180054 68 19 2.0 4.0 0.00 0.00 0.00 52 1008.8
20260902174557 69 347 3.0 10.0 0.00 0.00 0.00 51 1008.9
20260902173058 69 329 5.0 10.0 0.00 0.00 0.00 51 1009.4
20260902171548 69 343 6.0 13.0 0.00 0.00 0.00 51 1009.5
20260902170051 69 297 5.0 13.0 0.00 0.00 0.00 52 1009.6
20260902164547 69 351 5.0 13.0 0.00 0.00 0.00 52 1009.9
20260902163044 69 301 5.0 13.0 0.00 0.00 0.00 53 1010.3
20260902161541 68 345 6.0 14.0 0.00 0.00 0.00 53 1010.2
20260902160038 68 339 5.0 14.0 0.00 0.00 0.00 55 1010.5
20260902154538 68 314 4.0 11.0 0.00 0.00 0.00 56 1010.6
20260902153033 68 335 5.0 12.0 0.00 0.00 0.00 57 1010.9
20260902151534 66 334 3.0 9.0 0.00 0.00 0.00 57 1011.0
20260902150028 66 355 3.0 6.0 0.00 0.00 0.00 57 1011.2
20260902144526 66 328 4.0 8.0 0.00 0.00 0.00 57 1011.5
20260902143024 65 356 4.0 9.0 0.00 0.00 0.00 57 1011.4
20260902141520 64 340 3.0 8.0 0.00 0.00 0.00 61 1011.8
20260902140016 63 10 3.0 6.0 0.00 0.00 0.00 61 1011.9
20260902134516 63 340 2.0 4.0 0.00 0.00 0.00 60 1012.0
20260902133015 64 347 3.0 5.0 0.00 0.00 0.00 59 1012.0
20260902131515 64 330 2.0 6.0 0.00 0.00 0.00 60 1012.4
20260902130014 65 322 2.0 5.0 0.00 0.00 0.00 59 1012.4
20260902124514 65 345 2.0 6.0 0.00 0.00 0.00 59 1012.6
20260902123012 65 341 2.0 4.0 0.00 0.00 0.00 59 1012.7
20260902121512 66 336 2.0 4.0 0.00 0.00 0.00 57 1012.8
20260902120011 66 335 2.0 5.0 0.00 0.00 0.00 55 1012.9
20260902114511 67 336 1.0 3.0 0.00 0.00 0.00 55 1013.1
20260902113011 68 322 1.0 3.0 0.00 0.00 0.00 53 1013.1
20260902111511 70 319 0.0 4.0 0.00 0.00 0.00 49 1013.1
20260902110028 71 321 3.0 8.0 0.00 0.00 0.00 47 1013.1
20260902104515 71 299 4.0 9.0 0.00 0.00 0.00 46 1013.1
20260902103011 72 317 3.0 6.0 0.00 0.00 0.00 45 1013.1
20260902101507 72 303 4.0 9.0 0.00 0.00 0.00 44 1013.0
20260902100009 73 303 6.0 10.0 0.00 0.00 0.00 41 1012.9
20260902094508 73 304 8.0 15.0 0.00 0.00 0.00 41 1012.7
20260902093005 73 313 6.0 11.0 0.00 0.00 0.00 41 1012.8
20260902091505 73 312 6.0 12.0 0.00 0.00 0.00 42 1012.6
20260902090011 73 318 4.0 13.0 0.00 0.00 0.00 41 1012.5
20260902084504 73 305 6.0 12.0 0.00 0.00 0.00 42 1012.4
20260902083002 73 303 3.0 9.0 0.00 0.00 0.00 42 1012.3
20260902081501 74 309 3.0 10.0 0.00 0.00 0.00 40 1012.0
20260902080001 74 307 2.0 9.0 0.00 0.00 0.00 40 1012.0
20260902074600 75 305 3.0 9.0 0.00 0.00 0.00 39 1011.8
20260902073059 77 301 4.0 12.0 0.00 0.00 0.00 36 1011.6
20260902071559 78 294 5.0 12.0 0.00 0.00 0.00 35 1011.3
20260902070058 80 5 6.0 12.0 0.00 0.00 0.00 32 1011.2
20260902064604 83 325 7.0 15.0 0.00 0.00 0.00 29 1011.2
20260902063110 84 330 8.0 16.0 0.00 0.00 0.00 29 1011.0
20260902061619 86 345 5.0 16.0 0.00 0.00 0.00 28 1011.0
20260902060100 86 58 4.0 15.0 0.00 0.00 0.00 28 1011.0
20260902054555 85 301 6.0 18.0 0.00 0.00 0.00 29 1010.9
20260902053051 86 289 10.0 19.0 0.00 0.00 0.00 27 1011.1
20260902051559 82 309 6.0 16.0 0.00 0.00 0.00 30 1011.0
20260902050050 85 10 9.0 21.0 0.00 0.00 0.00 27 1011.2
20260902044605 87 305 7.0 18.0 0.00 0.00 0.00 27 1011.1
20260902043049 86 330 9.0 20.0 0.00 0.00 0.00 25 1011.0
20260902041548 86 290 12.0 21.0 0.00 0.00 0.00 26 1011.1
20260902040146 86 334 6.0 14.0 0.00 0.00 0.00 30 1011.1
20260902034542 86 312 8.0 14.0 0.00 0.00 0.00 30 1011.3
20260902033039 86 5 2.0 17.0 0.00 0.00 0.00 31 1011.5
20260902031552 86 332 7.0 17.0 0.00 0.00 0.00 31 1011.8
20260902030034 86 313 7.0 16.0 0.00 0.00 0.00 32 1012.3
20260902024537 85 324 5.0 20.0 0.00 0.00 0.00 33 1012.3
20260902023030 85 62 7.0 12.0 0.00 0.00 0.00 32 1012.5
20260902021523 84 349 4.0 16.0 0.00 0.00 0.00 34 1012.7
20260902020023 83 309 7.0 22.0 0.00 0.00 0.00 35 1013.0
20260902014516 82 5 8.0 17.0 0.00 0.00 0.00 36 1013.3
20260902013011 82 345 4.0 18.0 0.00 0.00 0.00 38 1013.7
20260902011507 81 348 9.0 17.0 0.00 0.00 0.00 38 1013.9
20260902010004 79 29 9.0 17.0 0.00 0.00 0.00 39 1014.1
20260902004600 78 348 8.0 18.0 0.00 0.00 0.00 40 1014.2
20260902003056 79 338 9.0 19.0 0.00 0.00 0.00 40 1014.4
20260902001553 78 347 5.0 12.0 0.00 0.00 0.00 43 1014.9
20260902000048 75 333 6.0 14.0 0.00 0.00 0.00 46 1015.0
20260901234543 72 37 3.0 8.0 0.00 0.00 0.00 53 1015.0
20260901233040 70 360 3.0 9.0 0.00 0.00 0.00 54 1015.1
20260901231545 68 21 4.0 12.0 0.00 0.00 0.00 57 1015.3
20260901230032 67 347 4.0 10.0 0.00 0.00 0.00 59 1015.6
20260901224534 66 343 2.0 10.0 0.00 0.00 0.00 60 1015.5
20260901223029 66 345 3.0 9.0 0.00 0.00 0.00 60 1015.5
20260901221526 65 334 2.0 8.0 0.00 0.00 0.00 62 1015.7
20260901220023 64 323 2.0 6.0 0.00 0.00 0.00 64 1015.6
20260901214522 63 324 3.0 8.0 0.00 0.00 0.00 64 1015.5
20260901213027 62 346 2.0 6.0 0.00 0.00 0.00 67 1015.8
20260901211521 63 360 3.0 6.0 0.00 0.00 0.00 67 1015.8
20260901210020 63 70 1.0 4.0 0.00 0.00 0.00 68 1015.4